Time,TemperatureF,DewpointF,PressureIn,WindDirection,WindDirectionDegrees,WindSpeedMPH,WindSpeedGustMPH,Humidity,HourlyPrecipIn,Conditions,Clouds,dailyrainin,SolarRadiationWatts/m^2,SoftwareType,DateUTC
2013-11-09 00:03:00,34.0,22.0,-100.00,South,186,1.0,3.0,61,0.00,,,0.00,0.000000,,2013-11-09 05:03:00,
2013-11-09 00:44:00,35.0,23.0,-100.00,SSW,198,2.0,4.0,61,0.00,,,0.00,0.000000,,2013-11-09 05:44:00,
2013-11-09 00:53:00,35.0,23.0,-100.00,SSW,198,2.0,4.0,61,0.00,,,0.00,0.000000,,2013-11-09 05:53:00,
2013-11-09 01:03:00,35.0,23.0,-100.00,SSW,198,2.0,4.0,61,0.00,,,0.00,0.000000,,2013-11-09 06:03:00,
2013-11-09 02:42:00,38.0,23.0,-100.00,SSW,200,1.0,8.0,54,-99.99,,,0.00,0.000000,,2013-11-09 07:42:00,
2013-11-09 02:53:00,38.0,23.0,-100.00,SSW,200,1.0,8.0,54,-99.99,,,0.00,0.000000,,2013-11-09 07:53:00,
2013-11-09 03:02:00,38.0,23.0,-100.00,SSW,200,1.0,8.0,54,-99.99,,,0.00,0.000000,,2013-11-09 08:02:00,
2013-11-09 03:42:00,37.0,25.0,-100.00,South,191,1.0,3.0,61,-99.99,,,0.00,0.000000,,2013-11-09 08:42:00,
2013-11-09 03:52:00,37.0,25.0,-100.00,South,191,1.0,3.0,61,-99.99,,,0.00,0.000000,,2013-11-09 08:52:00,
2013-11-09 04:02:00,37.0,25.0,-100.00,South,191,1.0,3.0,61,-99.99,,,0.00,0.000000,,2013-11-09 09:02:00,
2013-11-09 04:43:00,35.0,24.0,-100.00,SSW,198,2.0,4.0,65,0.00,,,-99.99,0.000000,,2013-11-09 09:43:00,
2013-11-09 04:53:00,35.0,24.0,-100.00,SSW,198,2.0,4.0,65,0.00,,,-99.99,0.000000,,2013-11-09 09:53:00,
2013-11-09 05:03:00,35.0,24.0,-100.00,SSW,198,2.0,4.0,65,0.00,,,-99.99,0.000000,,2013-11-09 10:03:00,
2013-11-09 05:43:00,36.0,25.0,-100.00,South,177,3.0,5.0,65,0.00,,,0.00,0.000000,,2013-11-09 10:43:00,
2013-11-09 06:43:00,33.0,26.0,-100.00,SW,225,0.0,5.0,75,-99.99,,,-99.99,0.000000,,2013-11-09 11:43:00,
2013-11-09 06:52:00,33.0,26.0,-100.00,SW,225,0.0,5.0,75,-99.99,,,-99.99,0.000000,,2013-11-09 11:52:00,
2013-11-09 07:02:00,33.0,26.0,-100.00,SW,225,0.0,5.0,75,-99.99,,,-99.99,0.000000,,2013-11-09 12:02:00,
2013-11-09 07:42:00,35.0,26.0,-100.00,South,186,3.0,5.0,70,0.00,,,0.00,0.000000,,2013-11-09 12:42:00,
2013-11-09 10:54:00,52.0,29.0,-100.00,SE,139,5.0,13.0,41,-99.99,,,0.00,432.000000,,2013-11-09 15:54:00,
2013-11-09 11:03:00,52.0,29.0,-100.00,SE,139,5.0,13.0,41,-99.99,,,0.00,432.000000,,2013-11-09 16:03:00,
2013-11-09 11:43:00,53.0,29.0,-100.00,SSE,148,3.0,10.0,40,0.00,,,0.00,385.000000,,2013-11-09 16:43:00,
2013-11-09 11:53:00,53.0,29.0,-100.00,SSE,148,3.0,10.0,40,0.00,,,0.00,385.000000,,2013-11-09 16:53:00,
2013-11-09 12:03:00,53.0,29.0,-100.00,SSE,148,3.0,10.0,40,0.00,,,0.00,385.000000,,2013-11-09 17:03:00,
2013-11-09 12:44:00,53.0,32.0,-100.00,WSW,245,5.0,9.0,44,0.00,,,0.00,367.000000,,2013-11-09 17:44:00,
2013-11-09 12:52:00,53.0,32.0,-100.00,WSW,245,5.0,9.0,44,0.00,,,0.00,367.000000,,2013-11-09 17:52:00,
2013-11-09 13:02:00,53.0,32.0,-100.00,WSW,245,5.0,9.0,44,0.00,,,0.00,367.000000,,2013-11-09 18:02:00,
2013-11-09 13:42:00,55.0,31.0,-100.00,SW,216,4.0,13.0,39,0.00,,,0.00,317.000000,,2013-11-09 18:42:00,
2013-11-09 13:52:00,55.0,31.0,-100.00,SW,216,4.0,13.0,39,0.00,,,0.00,317.000000,,2013-11-09 18:52:00,
2013-11-09 14:02:00,55.0,31.0,-100.00,SW,216,4.0,13.0,39,0.00,,,0.00,317.000000,,2013-11-09 19:02:00,
2013-11-09 14:42:00,52.0,31.0,-100.00,WSW,238,4.0,10.0,45,0.00,,,0.00,146.000000,,2013-11-09 19:42:00,
2013-11-09 14:52:00,52.0,31.0,-100.00,WSW,238,4.0,10.0,45,0.00,,,0.00,146.000000,,2013-11-09 19:52:00,
2013-11-09 15:02:00,52.0,31.0,-100.00,WSW,238,4.0,10.0,45,0.00,,,0.00,146.000000,,2013-11-09 20:02:00,
2013-11-09 15:42:00,50.0,36.0,-100.00,WSW,255,0.0,7.0,58,0.00,,,0.00,85.000000,,2013-11-09 20:42:00,
2013-11-09 15:52:00,50.0,36.0,-100.00,WSW,255,0.0,7.0,58,0.00,,,0.00,85.000000,,2013-11-09 20:52:00,
2013-11-09 16:03:00,50.0,36.0,-100.00,WSW,255,0.0,7.0,58,0.00,,,0.00,85.000000,,2013-11-09 21:03:00,
2013-11-09 16:44:00,52.0,33.0,-100.00,SSE,153,3.0,7.0,48,0.00,,,0.00,160.000000,,2013-11-09 21:44:00,
2013-11-09 16:54:00,52.0,33.0,-100.00,SSE,153,3.0,7.0,48,0.00,,,0.00,160.000000,,2013-11-09 21:54:00,
2013-11-09 17:04:00,52.0,33.0,-100.00,SSE,153,3.0,7.0,48,0.00,,,0.00,160.000000,,2013-11-09 22:04:00,
2013-11-09 17:43:00,51.0,33.0,-100.00,SSW,201,3.0,5.0,50,0.00,,,0.00,101.000000,,2013-11-09 22:43:00,
2013-11-09 17:54:00,51.0,33.0,-100.00,SSW,201,3.0,5.0,50,0.00,,,0.00,101.000000,,2013-11-09 22:54:00,
2013-11-09 18:02:00,51.0,33.0,-100.00,SSW,201,3.0,5.0,50,0.00,,,0.00,101.000000,,2013-11-09 23:02:00,
2013-11-09 18:42:00,48.0,31.0,-100.00,South,187,4.0,6.0,51,0.00,,,0.00,6.000000,,2013-11-09 23:42:00,
2013-11-09 18:53:00,48.0,31.0,-100.00,South,187,4.0,6.0,51,0.00,,,0.00,6.000000,,2013-11-09 23:53:00,
2013-11-09 19:02:00,48.0,31.0,-100.00,South,187,4.0,6.0,51,0.00,,,0.00,6.000000,,2013-11-10 00:02:00,
2013-11-09 19:42:00,47.0,37.0,-100.00,WSW,247,1.0,9.0,67,0.00,,,0.00,0.000000,,2013-11-10 00:42:00,
2013-11-09 19:52:00,47.0,37.0,-100.00,WSW,247,1.0,9.0,67,0.00,,,0.00,0.000000,,2013-11-10 00:52:00,
2013-11-09 20:02:00,47.0,37.0,-100.00,WSW,247,1.0,9.0,67,0.00,,,0.00,0.000000,,2013-11-10 01:02:00,
2013-11-09 20:42:00,44.0,36.0,-100.00,North,3,1.0,8.0,72,0.00,,,0.00,0.000000,,2013-11-10 01:42:00,
2013-11-09 20:52:00,44.0,36.0,-100.00,North,3,1.0,8.0,72,0.00,,,0.00,0.000000,,2013-11-10 01:52:00,
2013-11-09 21:02:00,44.0,36.0,-100.00,North,3,1.0,8.0,72,0.00,,,0.00,0.000000,,2013-11-10 02:02:00,
2013-11-09 21:42:00,41.0,32.0,-100.00,SSW,213,1.0,3.0,70,0.00,,,0.00,0.000000,,2013-11-10 02:42:00,
2013-11-09 21:52:00,41.0,32.0,-100.00,SSW,213,1.0,3.0,70,0.00,,,0.00,0.000000,,2013-11-10 02:52:00,
2013-11-09 22:03:00,41.0,32.0,-100.00,SSW,213,1.0,3.0,70,0.00,,,0.00,0.000000,,2013-11-10 03:03:00,
2013-11-09 22:44:00,40.0,31.0,-100.00,North,356,2.0,4.0,71,0.00,,,0.00,0.000000,,2013-11-10 03:44:00,
2013-11-09 22:54:00,40.0,31.0,-100.00,North,356,2.0,4.0,71,0.00,,,0.00,0.000000,,2013-11-10 03:54:00,
2013-11-09 23:02:00,-999.0,-99.9,-100.00,North,356,2.0,4.0,-999,-99.99,,,-99.99,0.000000,,2013-11-10 04:02:00,
2013-11-09 23:43:00,40.0,33.0,-100.00,NNE,16,2.0,3.0,77,0.00,,,0.00,0.000000,,2013-11-10 04:43:00,
2013-11-09 23:52:00,40.0,33.0,-100.00,NNE,16,2.0,3.0,77,0.00,,,0.00,0.000000,,2013-11-10 04:52:00,